Location: Hinxton
(52.0833°N, 0.1833°E)
Time: 13:31:16
(UTC+00:00)

Daily predictions for brighter satellites

Satellite Brightness Start Highest point End
(mag) Time Altitude Azimuth Time Altitude Azimuth Time Altitude Azimuth
Cosmos 1954 Rocket 4.0 20:58:53 10° SSW 21:04:10 77° ESE 21:09:27 10° NNE
Resurs 01 Rocket 4.2 21:01:25 10° SW 21:04:25 18° W 21:07:27 10° NW
CZ-4C R/B 3.7 21:00:20 10° NNE 21:04:27 73° WNW 21:08:35 10° SSW
Landsat 4 3.5 21:01:36 10° SSE 21:05:00 68° ENE 21:08:27 10° N
Cosmos 1980 Rocket 4.0 21:00:33 10° NW 21:05:12 26° WSW 21:09:50 10° SSW
COSMOS 2406 3.4 20:59:42 10° SSW 21:05:29 84° WNW 21:11:16 10° NNE
Cosmos 2322 Rocket 2.4 21:00:42 10° NNW 21:06:23 68° NE 21:12:03 10° SE
SeaSat 1 3.1 21:09:00 10° S 21:13:46 50° WSW 21:18:34 10° NW
Meteor 1-13 Rocket 4.3 21:08:17 10° S 21:14:05 79° E 21:19:47 10° NNE
Cosmos 676 Rocket 4.0 21:09:00 10° SSW 21:14:18 77° ESE 21:19:38 10° NNE
Cosmos 2278 4.1 21:10:53 10° NW 21:16:32 60° WSW 21:22:07 10° SSE
Cosmos 1707 3.3 21:13:39 10° SSW 21:17:13 56° WNW 21:20:47 10° N
Cosmos 1190 Rocket 4.5 21:12:45 10° SW 21:18:02 68° WNW 21:23:22 10° NNE
MOS 1 Rocket 3.7 21:15:24 10° SSE 21:20:49 84° WSW 21:26:09 10° NNW
USA 234 3.3 21:16:53 10° ENE 21:23:23 63° SE 21:29:52 10° SW
Cosmos 1455 4.0 21:24:05 10° NNE 21:26:33 18° ENE 21:29:02 10° ESE
COSMOS 2428 4.2 21:21:59 10° NNW 21:26:56 29° NE 21:31:51 10° E
SL-4 R/B 1.8 21:23:23 10° WSW 21:27:13 80° S 21:31:21 10° E
Cosmos 1400 Rocket 2.7 21:23:23 10° S 21:27:15 69° E 21:31:06 10° NNE
Meteor 2-10 Rocket 3.7 21:24:45 10° NNW 21:30:27 89° WSW 21:35:53 10° S
Cosmos 2219 Rocket 2.8 21:28:09 10° NNW 21:33:41 50° NE 21:39:12 10° SE
Landsat 5 3.8 21:30:01 10° NNE 21:33:50 44° E 21:37:45 10° S
Cosmos 841 Rocket 3.9 21:30:37 10° NNW 21:35:49 61° WSW 21:40:59 10° S
SPOT 5 4.5 21:32:42 10° SSW 21:36:20 26° W 21:40:02 10° NW
Cosmos 1707 Rocket 3.9 21:32:06 10° S 21:36:25 51° E 21:40:44 10° NNE
ERS-1 Rocket 4.0 21:33:48 10° S 21:38:34 43° W 21:43:22 10° NNW
ATLAS CENTAUR R/B 2.0 21:35:55 10° S 21:38:51 26° ESE 21:41:53 10° ENE
Cosmos 1315 Rocket 4.2 21:39:54 11° SE 21:42:45 23° E 21:45:56 10° NE
SJ 16-02 2.4 21:39:28 11° SSE 21:42:54 27° E 21:46:34 10° NE
ARIANE 5 R/B 3.7 21:39:28 10° SE 21:43:21 33° ENE 21:47:15 10° N
Meteor 1-4 Rocket 3.5 21:41:42 13° SE 21:43:36 22° E 21:46:01 10° NE
SL-27 R/B 2.8 21:41:50 13° SSE 21:43:56 29° ESE 21:46:25 10° NE
Cosmos 1953 3.3 21:40:56 10° N 21:44:24 31° ENE 21:47:31 12° SE
Okean 3 4.0 21:41:42 11° SSE 21:45:25 41° E 21:49:21 10° NNE
Spot 2 Rocket 4.3 21:41:13 10° S 21:46:07 48° W 21:51:03 10° NNW
Aureole 3 3.8 21:49:38 12° SSE 21:53:06 51° E 21:57:47 10° NNE
Cosmos 1300 2.9 21:50:08 10° NNW 21:53:39 60° W 21:57:03 11° S
Cosmos 1733 Rocket 3.2 21:50:55 10° NNW 21:55:20 77° W 21:59:30 11° S
Spot 1 4.2 21:51:16 10° NNE 21:55:45 77° ESE 22:00:26 10° SSW
Cosmos 2360 Rocket 2.3 21:51:49 10° NNW 21:57:30 72° WSW 22:02:32 13° SSE
Meteor 1-23 Rocket 4.4 21:51:50 10° SSW 21:57:31 80° WNW 22:03:18 10° NNE
Cosmos 1655 Rocket 4.1 21:53:05 10° S 21:59:30 86° W 22:05:57 10° N
Cosmos 839 Rocket 4.2 21:53:48 10° NW 22:01:04 90° SW 22:06:45 13° SE
GP-B 4.1 21:57:12 10° NNE 22:01:13 33° E 22:04:27 14° SE
H-2A R/B 3.8 21:59:14 11° SE 22:02:52 31° ENE 22:06:37 10° N
ATLAS 2AS CENTAUR R/B 2.8 21:58:57 10° NW 22:05:46 68° SW 22:11:32 14° SSE
Cosmos 2333 Rocket 2.4 22:00:27 10° NW 22:06:10 68° WSW 22:11:07 14° SSE
SL-16 R/B 3.4 22:01:18 10° NW 22:06:21 34° WSW 22:11:23 10° S
Cosmos 1908 Rocket 4.0 22:03:28 10° N 22:07:45 51° ENE 22:11:05 16° SSE
SL-14 R/B 3.6 22:05:29 10° SSW 22:09:14 63° WNW 22:13:01 10° N
Ariane Rocket 4.4 22:06:19 10° SSW 22:10:53 33° W 22:15:29 10° NNW
Cosmos 2228 Rocket 3.4 22:06:27 10° SSW 22:10:59 70° WNW 22:15:35 10° N
RESURS DK-1 3.7 22:08:08 10° NW 22:11:42 30° WSW 22:14:58 12° S
MetOp-A 4.4 22:07:04 11° S 22:11:57 61° WSW 22:17:11 10° NNW
Cosmos 807 4.3 22:08:48 10° SSW 22:12:06 75° W 22:15:05 10° N
BREEZE-M DEB (TANK) 3.1 22:09:52 10° WSW 22:12:29 54° SSE 22:18:44 10° E
Cosmos 2082 Rocket 4.3 22:08:47 10° WSW 22:13:49 31° NW 22:18:51 10° NNE
Okean 1-7 3.2 22:13:21 15° S 22:16:47 55° E 22:21:01 10° NNE
Cosmos 1346 Rocket 3.7 22:14:24 10° NNW 22:18:02 40° W 22:21:26 11° SSW
BREEZE-M DEB (TANK) 2.1 22:16:59 10° W 22:22:41 83° NNW 22:25:00 10° E
Cosmos 1833 4.2 22:17:29 10° SSW 22:23:03 66° ESE 22:28:38 10° NE
BlueWalker 3 4.2 22:24:28 10° ESE 22:24:28 10° ESE 22:24:29 10° ESE
Cosmos 1408 4.3 22:22:39 11° ESE 22:23:42 13° E 22:25:12 10° ENE
Cosmos 1850 Rocket 4.2 22:18:29 10° SSW 22:23:43 75° WNW 22:28:57 10° NNE
Terra 3.9 22:20:31 10° SW 22:23:59 20° W 22:27:29 10° NW
Cosmos 1242 Rocket 3.2 22:23:20 20° SE 22:24:22 26° E 22:26:45 10° NE
Cosmos 1570 Rocket 4.2 22:24:51 10° NNW 22:30:12 69° ENE 22:34:28 16° SE
Cosmos 2237 Rocket 3.6 22:25:43 10° NNW 22:30:52 33° NE 22:35:58 10° ESE
Cosmos 1300 Rocket 4.3 22:26:49 10° N 22:30:54 40° ENE 22:33:56 16° SE
Cosmos 2322 3.8 22:25:45 10° NNW 22:31:29 74° ENE 22:36:10 15° SE
USA 281 3.3 22:28:55 16° SSE 22:34:24 77° WSW 22:41:02 10° NNW
ALOS 2 3.6 22:32:43 14° SE 22:36:03 38° ENE 22:40:08 10° N
CZ-2C R/B 3.6 22:35:44 10° NNE 22:40:09 75° ESE 22:43:37 16° S
CZ-4C R/B 3.6 22:42:23 13° SE 22:43:50 15° ESE 22:46:41 10° ENE
Cosmos 968 Rocket 3.7 22:40:35 10° SSW 22:45:43 71° WNW 22:50:57 10° NNE
Cosmos 2322 Rocket 3.7 22:45:24 10° NW 22:49:58 26° WSW 22:54:24 11° SSW
Cosmos 1703 Rocket 3.6 22:48:43 18° S 22:51:59 81° E 22:56:28 10° NNE
Spot 4 3.9 22:49:10 19° SSE 22:52:35 75° ENE 22:57:24 10° NNW
NOSS 0 Rocket 4.2 22:47:00 10° NNW 22:53:16 68° NE 22:58:45 14° SE
SL-08 R/B 4.5 22:48:53 14° S 22:54:14 86° W 23:00:22 10° N
Cosmos 158 Rocket 4.1 22:48:58 10° NNW 22:54:20 76° ENE 22:58:13 18° SSE
Okean 2 3.7 22:54:53 15° SSW 22:58:08 59° WNW 23:02:08 10° N
EXPRESS MD2 2.0 22:57:09 10° WSW 22:59:18 48° S 22:59:33 44° SSE
PSLV R/B 3.8 22:55:41 10° NNE 22:59:43 87° ESE 23:02:28 19° SSW
Cosmos 2242 Rocket 4.3 22:57:30 20° SSE 23:00:12 41° E 23:04:29 10° NNE
Cosmos 2297 Rocket 3.7 22:57:54 15° SE 23:00:40 21° E 23:04:49 10° NE
Cosmos 1455 2.9 22:57:52 10° NNW 23:01:11 40° W 23:03:18 19° SSW
Cosmos 2208 Rocket 4.0 22:57:01 10° NNW 23:02:17 90° E 23:05:55 20° SSE
SL-4 R/B 1.9 23:02:00 10° W 23:05:59 74° SSW 23:10:14 10° ESE
NOSS 5 (C) 4.2 23:03:01 10° NW 23:06:12 66° SW 23:07:42 28° SSE
Cosmos 773 Rocket 4.5 23:01:19 10° NNW 23:06:23 55° ENE 23:10:31 15° SE
USA 234 3.6 23:00:00 10° ENE 23:06:31 70° NNW 23:13:01 10° W
Cosmos 1932 4.4 23:00:25 10° SW 23:06:45 81° SE 23:13:02 10° NE
SAR-Lupe-3 4.5 23:06:34 25° SSE 23:08:32 89° W 23:12:09 10° NNW
COSMOS 2428 2.7 23:06:02 10° NNW 23:11:44 75° WSW 23:15:44 20° SSE
Cosmos 2098 Rocket 4.5 23:06:58 10° N 23:13:27 56° ENE 23:18:27 17° SSE
CENTAUR R/B 4.4 23:13:40 10° ESE 23:15:17 11° E 23:16:59 10° E
COSMOS 2455 3.5 23:12:16 20° SSE 23:15:47 37° ESE 23:21:17 10° NE
ATLAS CENTAUR R/B 2.2 23:12:56 10° WSW 23:16:20 43° NW 23:19:51 10° NE
Meteor 1-4 Rocket 4.3 23:14:00 10° WSW 23:16:23 22° WNW 23:18:50 10° NNW
GENESIS II 4.3 23:14:53 25° S 23:16:35 46° SE 23:20:06 10° NE
Cosmos 2219 Rocket 3.1 23:12:21 10° NW 23:17:29 36° WSW 23:21:08 18° SSW
Cosmos 1315 Rocket 4.0 23:15:10 11° SW 23:18:42 38° WNW 23:22:29 10° N
ARIANE 5 R/B 3.7 23:16:54 16° SSW 23:19:44 33° W 23:23:41 10° NNW
Cosmos 1953 3.9 23:16:55 10° NNW 23:20:07 26° W 23:22:38 14° SW
SJ 16-02 2.5 23:17:00 10° SW 23:21:05 41° WNW 23:25:13 10° NNE
PSLV R/B 4.1 23:26:51 10° NNE 23:30:55 44° E 23:33:07 24° SSE
Cosmos 304 Rocket 4.4 23:31:07 23° SSE 23:33:38 40° ESE 23:38:05 10° NE
Cosmos 1745 Rocket 4.2 23:30:01 16° SSW 23:35:07 72° WNW 23:41:31 10° N
H-2A R/B 3.5 23:35:13 19° SSW 23:37:43 37° W 23:41:42 10° NNW
GP-B 4.5 23:34:27 10° NNW 23:38:22 31° WNW 23:41:46 13° SW
Okean 1 Rocket 4.3 23:35:55 10° N 23:39:52 33° ENE 23:43:06 14° SE
Cosmos 2360 Rocket 4.3 23:37:45 10° WNW 23:40:29 14° W 23:43:13 10° SW
Cosmos 2181 Rocket 4.1 23:38:51 10° N 23:45:06 74° ENE 23:49:34 20° SSE
Cosmos 1486 Rocket 4.0 23:41:55 21° S 23:45:21 71° ESE 23:50:33 10° NNE
Cosmos 1825 3.4 23:47:12 19° SE 23:48:40 26° E 23:51:34 10° NNE
Cosmos 2333 Rocket 4.4 23:46:51 10° WNW 23:49:23 13° W 23:51:55 10° WSW
ATLAS 2AS CENTAUR R/B 4.4 23:51:26 10° WNW 23:55:25 17° WSW 23:58:56 11° SW
Cosmos 1408 3.1 23:54:41 22° SW 23:56:07 37° WNW 23:58:57 10° N
Cosmos 1242 Rocket 4.4 23:54:36 10° WSW 23:56:27 16° WNW 23:58:19 10° NNW
